Showing default

GHOST-4, 59133

Orbit data source: Space-Track

GHOST-4, 59133 is a payload satellite owned by Orbital Sidekick (US) in SSO that was launched on Mon, 04 Mar 2024 UTC via an FALCON 9 launch vehicle from the Air Force Western Test Range (AFWTR). Payload-class satellites include a variety of spacecraft equipped with specific instruments for various scientific and technological missions. These include communications satellites like Starlink; space stations such as the ISS; scientific satellites like the Hubble; Earth observation satellites from companies like Planet Labs, Umbra, and HawkEye 360; GPS; miniature CubeSats for education and research; and military/defense satellites.

Loading next visibility...
Identifier
59133, 2024-043AM
Orbit
SSO
Country
Flag of USUS
Related business
Manufacturer
Astro Digital
Mission
Operational Commercial Imaging
Bus & Motor
CORVUS-XL, Unknown motor
Mass
85 kg wet, 85 kg dry
Launch date (UTC)
2024-03-04 (2 years ago)
Launch vehicle
FALCON 9
Launch site
Air Force Western Test Range (AFWTR)
Object type
Payload
Rocket body
Debris
Shape & HBR
Box + 1 Dish, 1.0 m
Radar Cross Section
0.425 m², Medium (>0.1 m² and < 1m²)

Expand to show TLE details & history
Last TLE update: 8 hours ago

TLE from 8 hours ago
0 GHOST-4
1 59133U 24043AM  26124.13736973  .00014059  00000-0  32885-3 0  9996
2 59133  97.5554 267.4654 0008086  22.2588 337.9008 15.42231692120740
Epoch: 2026-05-04T03:17Z
TLE epoch observation values (Epoch: 2026-05-04T03:17:48.744Z)
Latitude
-0.00005°
Longitude
-4.01858°
Altitude
437.532 km
Speed
7.652 km/s
True Right ascension
17h 49m 51s
True Declination
0° 00' 00"
Sunlit
Object was in full shadow at epoch
Visualization orbit readout
Latitude
Unknown
Longitude
Unknown
Altitude
Unknown
Speed
Unknown
Apparent Right ascension
Unknown
Apparent Declination
Unknown
Sunlit
N/A
Visualization observer readout
Local Sidereal Time
18:39:08
Azimuth
Unknown
Elevation
Unknown
Doppler factor
Unknown
Orbital elements
Apogee altitude
441.977 km
Perigee altitude
430.957 km
Semi-major axis
6,814.604 km
Eccentricity
0.00081
Inclination
97.5554°
RAAN
267.4654°
Arg. of periapsis
22.2588°
True anomaly
337.86591°
Mean anomaly
337.9008°
Eccentric anomaly
337.88336°
Mean motion
3.85818 °/min
Orbital period
93.31 mins
BSTAR
0.00032885
Loading maneuver chart data...
Computing Atmospheric mass density...
Loading historical data...
Loading historical data...
Loading historical data...
Loading historical data...
Loading historical data...
Loading historical data...
Loading historical data...

Documentation

Showing up to 5 results
|